[[{"header":{"parameterUnit":"m.s-1","parameterCategory":2,"la1":30.2991,"la2":30.254,"lo1":-89.0895,"lo2":-89.0444,"dy":0.0017,"dx":0.0017,"nx":28,"ny":28,"refTime":"2026-02-01T03:00:00:Z","depth":"0","parameterNumber":2,"parameterNumberName":"U-component_of_CURRENTS"},"data":[0,0,0,0,0,0,0,0,0,0,0,0,0,0,0,0,0,0,0,0,0,0,0,0,0,0,0,0,0,0,0,0,0,0,0,0,0,0,0,0,0,0,0,0,0,0,0,0,0,0,0,0,0,0,0,0,0,0,0.0855,0.0854,0,0.0844,0.0845,0.0846,0.0932,0.0934,0.0935,0.0937,0.0877,0.0874,0.0871,0,0,0,0,0,0,0,0,0,0,0,0,0,0.0939,0.0938,0.0855,0.0854,0.0853,0.0844,0.0845,0.0846,0.0932,0.0934,0.0936,0.0938,0.0878,0.0874,0.087,0,0,0,0,0,0,0,0,0,0,0,0,0,0.0922,0.0938,0.0855,0.0888,0.089,0.0844,0.0845,0.0846,0.0932,0.0934,0.0936,0.0939,0.0879,0.0875,0.087,0.0795,0,0,0.0856,0.0854,0,0,0,0,0,0,0,0,0.0923,0.092,0.0884,0.0886,0.0888,0.0884,0.0852,0.0823,0.0931,0.0926,0.0937,0.094,0.0866,0.0863,0.087,0.0792,0.079,0.0856,0.0853,0.0851,0.085,0,0,0,0,0,0,0,0.0924,0.0921,0.0861,0.0883,0.0885,0.0899,0.09,0.0848,0.089,0.0927,0.0931,0.0913,0.0869,0.0875,0.0869,0.0789,0.0856,0.0852,0.0849,0.0847,0.0926,0.093,0,0,0,0,0,0,0.0904,0.0922,0.0861,0.0859,0.0901,0.0895,0.0897,0.0891,0.0892,0.0892,0.0911,0.0917,0.0881,0.0874,0.0867,0.0834,0.0851,0.0847,0.0844,0.0921,0.0927,0.0932,0,0,0,0,0,0,0.0906,0.0899,0.0861,0.0882,0.0877,0.089,0.0883,0.0889,0.0907,0.0879,0.0881,0.0924,0.0883,0.0873,0.0884,0.083,0.0845,0.084,0.0915,0.0923,0.0929,0.0731,0,0,0,0,0,0,0.0909,0.09,0.0941,0.0881,0.0875,0.0868,0.088,0.0887,0.0887,0.0896,0.0888,0.0885,0.0884,0.0892,0.088,0.0824,0.0837,0.0909,0.0919,0.0927,0.0731,0.073,0.073,0,0,0,0,0,0.0912,0.0939,0.0943,0.0938,0.0913,0.0868,0.0869,0.0891,0.0885,0.0912,0.0926,0.0886,0.0944,0.089,0.0875,0.0816,0.0905,0.0916,0.0926,0.0732,0.0731,0.073,0,0,0,0,0,0,0.1007,0.0947,0.0951,0.0965,0.0935,0.088,0.0895,0.0883,0.0911,0.0915,0.09,0.0899,0.09,0.0928,0.087,0.09,0.0935,0.0943,0.0793,0.0791,0.079,0.0859,0.0833,0,0,0,0,0,0.1037,0.1031,0.0979,0.0986,0.0966,0.0926,0.0921,0.0914,0.0898,0.0913,0.0893,0.0917,0.093,0.0917,0.0945,0.0909,0.0943,0.09,0.0898,0.0895,0.0964,0.0935,0.0932,0.0968,0.0968,0.0967,0,0,0.1054,0.1033,0.1024,0.1005,0.0972,0.0914,0.0932,0.0901,0.0854,0.0892,0.085,0.0893,0.0936,0.0929,0.0932,0.0932,0.0909,0.0909,0.0904,0.0976,0.0945,0.0939,0.0935,0.0975,0.0974,0.0973,0,0,0.1045,0.1075,0.105,0.1029,0.0984,0.0935,0.0918,0.0859,0.0858,0.0814,0.086,0.0889,0.0866,0.0899,0.0907,0.0928,0.0912,0.0956,0.0954,0.092,0.0913,0.0908,0.0916,0.0913,0.0937,0.0936,0.0936,0,0.1073,0.1056,0.104,0.1007,0.0992,0.0925,0.0887,0.0835,0.0793,0.0814,0.0796,0.0875,0.0845,0.0889,0.0912,0.09,0.093,0.0902,0.0901,0.0898,0.0895,0.0906,0.0905,0.0928,0.0929,0.093,0.0931,0,0.1039,0.1034,0.1009,0.0936,0.0918,0.0879,0.0792,0.0771,0.0727,0.0705,0.076,0.0776,0.0832,0.0826,0.0845,0.0867,0.0908,0.0885,0.0855,0.0876,0.0891,0.0892,0.0916,0.0919,0.0922,0.0924,0,0,0.1014,0.0998,0.0972,0.0974,0.0901,0.0861,0.0783,0.0741,0.0718,0.0698,0.0698,0.0738,0.0786,0.082,0.0857,0.0859,0.0789,0.0876,0.0878,0.0805,0.0766,0.0809,0.0816,0.0746,0.0746,0.0747,0.0765,0,0.0983,0.096,0.0938,0.0868,0.0858,0.082,0.0765,0.0726,0.0684,0.0648,0.0694,0.0704,0.0756,0.0782,0.0779,0.0775,0.08,0.0793,0.0838,0.0842,0.0804,0.082,0.091,0.0939,0.0768,0.0768,0.0769,0,0.0926,0.0944,0.0941,0.0918,0.0903,0.085,0.0821,0.0752,0.0703,0.0695,0.0731,0.0731,0.0733,0.0754,0.0777,0.0772,0.0799,0.0823,0.0821,0.0954,0.089,0.0912,0.095,0.1063,0.0772,0.0772,0.0772,0,0.0943,0.0903,0.0935,0.0932,0.0903,0.0909,0.0847,0.0811,0.0783,0.0722,0.0711,0.0719,0.07,0.0719,0.0734,0.0733,0.0775,0.072,0.0838,0.084,0.0987,0.1002,0.1082,0.0811,0.0811,0.0811,0.0811,0,0.0924,0.0919,0.0963,0.0979,0.099,0.0954,0.094,0.0882,0.0837,0.0823,0.0742,0.0773,0.07,0.0695,0.0716,0.0778,0.0726,0.0888,0.0854,0.0926,0.0935,0.1101,0.108,0.0811,0.0811,0.0811,0.0811,0,0.0914,0.0951,0.0993,0.1019,0.1009,0.1016,0.0958,0.0937,0.0901,0.0865,0.0843,0.0773,0.0768,0.0749,0.0756,0.0761,0.0787,0.0878,0.0993,0.0976,0.1139,0.1104,0.0944,0.0842,0.0947,0.0948,0.0949,0,0.092,0.0961,0.1017,0.1043,0.1055,0.1056,0.1035,0.0975,0.0954,0.092,0.0899,0.0884,0.0895,0.0886,0.0908,0.0934,0.0905,0.105,0.1066,0.1209,0.1142,0.0916,0.0822,0.1172,0.1175,0.1177,0.1179,0,0.0925,0.0966,0.0994,0.1067,0.1078,0.1084,0.1049,0.1035,0.0986,0.0981,0.0988,0.0995,0.1027,0.1064,0.1094,0.1133,0.0973,0.1099,0.1204,0.1325,0.1127,0.0994,0.1118,0.1199,0.1197,0.1196,0.1194,0.1194,0.0914,0.0948,0.0995,0.1057,0.1073,0.1082,0.1067,0.1052,0.1034,0.0994,0.1053,0.1081,0.1213,0.1252,0.1296,0.1427,0.116,0.1465,0.1409,0.1165,0.1078,0.1278,0.1337,0.1336,0.1335,0.1334,0.1333,0,0.0853,0.0895,0.0956,0.1022,0.1024,0.1054,0.1047,0.1035,0.1017,0.1026,0.1056,0.1232,0.1383,0.1497,0.1658,0.1734,0.1543,0.1751,0.1526,0.1409,0.1631,0.167,0.1856,0.1856,0.1856,0.1856,0.1855,0.1855,0.0826,0.084,0.0894,0.0933,0.0979,0.0981,0.0977,0.098,0.0991,0.1003,0.1068,0.1125,0.1395,0.1734,0.1978,0.1994,0.1793,0.1748,0.1572,0.1921,0.1892,0.1864,0.1904,0.2136,0.2136,0.1313,0.1308,0.1304]},{"header":{"parameterUnit":"m.s-1","parameterCategory":2,"la1":30.2991,"la2":30.254,"lo1":-89.0895,"lo2":-89.0444,"dy":0.0017,"dx":0.0017,"nx":28,"ny":28,"refTime":"2026-02-01T03:00:00:Z","depth":"0","parameterNumber":3,"parameterNumberName":"V-component_of_CURRENTS"},"data":[0,0,0,0,0,0,0,0,0,0,0,0,0,0,0,0,0,0,0,0,0,0,0,0,0,0,0,0,0,0,0,0,0,0,0,0,0,0,0,0,0,0,0,0,0,0,0,0,0,0,0,0,0,0,0,0,0,0,-0.0913,-0.0914,0,-0.0944,-0.0943,-0.0943,-0.0894,-0.0892,-0.0891,-0.089,-0.0767,-0.0765,-0.0763,0,0,0,0,0,0,0,0,0,0,0,0,0,-0.0803,-0.0805,-0.0913,-0.0914,-0.0915,-0.0944,-0.0943,-0.0943,-0.0894,-0.0892,-0.0891,-0.089,-0.0768,-0.0765,-0.0763,0,0,0,0,0,0,0,0,0,0,0,0,0,-0.0839,-0.0806,-0.0913,-0.0898,-0.0897,-0.0944,-0.0943,-0.0943,-0.0894,-0.0892,-0.0891,-0.0889,-0.0769,-0.0765,-0.0762,-0.0777,0,0,-0.0752,-0.0751,0,0,0,0,0,0,0,0,-0.0837,-0.0842,-0.0899,-0.0899,-0.0898,-0.0918,-0.086,-0.0882,-0.0894,-0.0889,-0.089,-0.0888,-0.0808,-0.0802,-0.0805,-0.0771,-0.0766,-0.0752,-0.075,-0.0748,-0.0748,0,0,0,0,0,0,0,-0.0834,-0.084,-0.0919,-0.09,-0.09,-0.0887,-0.089,-0.0864,-0.0851,-0.0889,-0.0887,-0.0901,-0.0806,-0.0809,-0.0802,-0.0764,-0.0752,-0.0749,-0.0747,-0.0746,-0.0694,-0.0695,0,0,0,0,0,0,-0.0845,-0.0839,-0.0918,-0.092,-0.0869,-0.0891,-0.0894,-0.0909,-0.0854,-0.0847,-0.0902,-0.0898,-0.0815,-0.0806,-0.0797,-0.0778,-0.0748,-0.0745,-0.0744,-0.0694,-0.0694,-0.0695,0,0,0,0,0,0,-0.0843,-0.0852,-0.0917,-0.0884,-0.0892,-0.0896,-0.0913,-0.091,-0.091,-0.0867,-0.0855,-0.0904,-0.0813,-0.0802,-0.0786,-0.0774,-0.0744,-0.0741,-0.0693,-0.0694,-0.0695,-0.0761,0,0,0,0,0,0,-0.084,-0.0851,-0.0852,-0.0886,-0.0895,-0.0953,-0.0915,-0.0912,-0.0924,-0.0919,-0.0865,-0.0852,-0.0811,-0.0792,-0.0783,-0.0769,-0.0738,-0.0692,-0.0693,-0.0694,-0.0758,-0.0764,-0.0769,0,0,0,0,0,-0.0836,-0.0857,-0.0852,-0.0861,-0.0901,-0.0956,-0.0959,-0.095,-0.0926,-0.0939,-0.0904,-0.0853,-0.0791,-0.0791,-0.078,-0.0764,-0.0692,-0.0693,-0.0694,-0.0755,-0.0763,-0.0769,0,0,0,0,0,0,-0.0829,-0.0856,-0.085,-0.0882,-0.0919,-0.0949,-0.0974,-0.0959,-0.0945,-0.0929,-0.0876,-0.0862,-0.0838,-0.0804,-0.0805,-0.0754,-0.0727,-0.0727,-0.0777,-0.0783,-0.0789,-0.0833,-0.0736,0,0,0,0,0,-0.0827,-0.0834,-0.0877,-0.0904,-0.0936,-0.0953,-0.0968,-0.0959,-0.0962,-0.0954,-0.0925,-0.0881,-0.0839,-0.0815,-0.0783,-0.0768,-0.0747,-0.0746,-0.0752,-0.0757,-0.0787,-0.0749,-0.0754,-0.07,-0.07,-0.07,0,0,-0.084,-0.085,-0.086,-0.09,-0.0936,-0.0974,-0.0958,-0.0994,-0.0998,-0.0941,-0.0945,-0.0905,-0.0842,-0.082,-0.0804,-0.0787,-0.0761,-0.0759,-0.0763,-0.0791,-0.0751,-0.0757,-0.0761,-0.07,-0.07,-0.07,0,0,-0.0863,-0.0887,-0.0898,-0.0936,-0.0977,-0.0992,-0.1005,-0.1041,-0.1034,-0.1039,-0.0985,-0.0956,-0.0911,-0.0866,-0.0831,-0.0853,-0.0796,-0.0824,-0.0882,-0.0845,-0.0849,-0.0853,-0.0833,-0.0835,-0.0822,-0.0822,-0.0822,0,-0.0886,-0.0889,-0.0916,-0.0949,-0.0987,-0.1004,-0.1043,-0.1049,-0.106,-0.1063,-0.1046,-0.0986,-0.0933,-0.0888,-0.0897,-0.0864,-0.0845,-0.0858,-0.0853,-0.0856,-0.0858,-0.0838,-0.0838,-0.0825,-0.0825,-0.0825,-0.0824,0,-0.0907,-0.0924,-0.0959,-0.099,-0.1035,-0.1081,-0.1113,-0.1129,-0.1124,-0.112,-0.1102,-0.1051,-0.1008,-0.0979,-0.0947,-0.0928,-0.0909,-0.0867,-0.0838,-0.0868,-0.0844,-0.0844,-0.083,-0.0829,-0.0828,-0.0827,0,0,-0.0934,-0.0964,-0.0974,-0.0989,-0.1059,-0.1097,-0.1135,-0.1169,-0.1168,-0.1175,-0.117,-0.1126,-0.1102,-0.1064,-0.1004,-0.0989,-0.0986,-0.0952,-0.0948,-0.0939,-0.0923,-0.0936,-0.0937,-0.094,-0.094,-0.094,-0.0899,0,-0.0949,-0.0995,-0.1002,-0.1056,-0.1104,-0.1143,-0.1175,-0.1199,-0.1204,-0.1203,-0.1167,-0.1134,-0.1125,-0.1085,-0.1076,-0.0985,-0.0989,-0.1003,-0.0891,-0.0889,-0.0902,-0.0938,-0.0914,-0.0878,-0.0898,-0.0898,-0.0898,0,-0.0954,-0.0983,-0.1039,-0.1082,-0.111,-0.1138,-0.1196,-0.1203,-0.1215,-0.1219,-0.121,-0.1178,-0.1143,-0.1126,-0.1054,-0.1062,-0.1026,-0.0983,-0.0978,-0.0976,-0.0903,-0.085,-0.0876,-0.0735,-0.0897,-0.0897,-0.0897,0,-0.0952,-0.1,-0.1034,-0.1065,-0.1128,-0.1152,-0.1172,-0.1212,-0.1213,-0.1208,-0.1199,-0.1179,-0.112,-0.1097,-0.1027,-0.1034,-0.0954,-0.0925,-0.0923,-0.0922,-0.0877,-0.0872,-0.0762,-0.0923,-0.0923,-0.0923,-0.0923,0,-0.0963,-0.0989,-0.1029,-0.1064,-0.1093,-0.1138,-0.1154,-0.1178,-0.1186,-0.1178,-0.1179,-0.1148,-0.1113,-0.1062,-0.1031,-0.0973,-0.0947,-0.0963,-0.0921,-0.0899,-0.0898,-0.0752,-0.0702,-0.0921,-0.0922,-0.0922,-0.0922,0,-0.0958,-0.0984,-0.1019,-0.1079,-0.1094,-0.1108,-0.114,-0.1141,-0.115,-0.1131,-0.1127,-0.1104,-0.1048,-0.1025,-0.0952,-0.0948,-0.0834,-0.0895,-0.0891,-0.0853,-0.0754,-0.0711,-0.0646,-0.0548,-0.0902,-0.0902,-0.0902,0,-0.0959,-0.0981,-0.1029,-0.1037,-0.106,-0.1081,-0.1098,-0.1125,-0.1118,-0.1095,-0.1071,-0.1036,-0.1011,-0.0923,-0.0922,-0.09,-0.0803,-0.0863,-0.0892,-0.0771,-0.069,-0.0677,-0.0597,-0.0846,-0.0846,-0.0846,-0.0845,0,-0.097,-0.098,-0.0999,-0.1025,-0.1038,-0.1047,-0.1063,-0.1061,-0.1069,-0.1054,-0.1017,-0.0997,-0.0961,-0.0928,-0.0915,-0.0888,-0.0761,-0.0861,-0.0712,-0.0647,-0.0646,-0.0522,-0.0855,-0.0843,-0.0843,-0.0844,-0.0844,-0.0844,-0.0965,-0.0958,-0.098,-0.0988,-0.1003,-0.1009,-0.1004,-0.1002,-0.0983,-0.0942,-0.0954,-0.0894,-0.0903,-0.0891,-0.0838,-0.0722,-0.0756,-0.0678,-0.0638,-0.0639,-0.0547,-0.0908,-0.0863,-0.0863,-0.0864,-0.0864,-0.0864,0,-0.0984,-0.0952,-0.0951,-0.0953,-0.0958,-0.0984,-0.0977,-0.0952,-0.0912,-0.0871,-0.0847,-0.079,-0.075,-0.0698,-0.0626,-0.0504,-0.0446,-0.041,-0.0344,-0.027,-0.0556,-0.0553,-0.0465,-0.0465,-0.0465,-0.0465,-0.0465,-0.0465,-0.0977,-0.0963,-0.0943,-0.0921,-0.0917,-0.0906,-0.0896,-0.0856,-0.0816,-0.0717,-0.0641,-0.0588,-0.0428,-0.0406,-0.024,-0.0206,-0.001,-0.0077,0.0041,-0.011,-0.013,-0.0149,-0.013,0.0045,0.0045,0.0345,0.0348,0.035]}],[{"header":{"parameterUnit":"m.s-1","parameterCategory":2,"la1":30.2991,"la2":30.254,"lo1":-89.0895,"lo2":-89.0444,"dy":0.0017,"dx":0.0017,"nx":28,"ny":28,"refTime":"2026-02-01T03:00:00:Z","depth":"2","parameterNumber":2,"parameterNumberName":"U-component_of_CURRENTS"},"data":[0,0,0,0,0,0,0,0,0,0,0,0,0,0,0,0,0,0,0,0,0,0,0,0,0,0,0,0,0,0,0,0,0,0,0,0,0,0,0,0,0,0,0,0,0,0,0,0,0,0,0,0,0,0,0,0,0,0,-0.2173,-0.2174,0,-0.2193,-0.2193,-0.2193,-0.2117,-0.2114,-0.2112,-0.211,-0.206,-0.206,-0.2061,0,0,0,0,0,0,0,0,0,0,0,0,0,-0.2177,-0.2176,-0.2173,-0.2174,-0.2174,-0.2193,-0.2193,-0.2193,-0.2117,-0.2114,-0.2111,-0.2109,-0.2059,-0.206,-0.2061,0,0,0,0,0,0,0,0,0,0,0,0,0,-0.2183,-0.2176,-0.2173,-0.2138,-0.2135,-0.2192,-0.2193,-0.2193,-0.2118,-0.2114,-0.2111,-0.2108,-0.2059,-0.206,-0.2061,-0.2136,0,0,-0.2065,-0.2065,0,0,0,0,0,0,0,0,-0.2183,-0.2183,-0.2143,-0.2141,-0.2137,-0.2149,-0.2175,-0.2171,-0.2118,-0.2124,-0.211,-0.2106,-0.2085,-0.2084,-0.2096,-0.2134,-0.2132,-0.2065,-0.2066,-0.2066,-0.2066,0,0,0,0,0,0,0,-0.2182,-0.2183,-0.2181,-0.2144,-0.214,-0.2158,-0.2154,-0.2175,-0.2122,-0.2124,-0.2118,-0.2121,-0.2083,-0.2096,-0.2094,-0.2131,-0.2065,-0.2066,-0.2067,-0.2067,-0.2162,-0.2164,0,0,0,0,0,0,-0.2178,-0.2182,-0.218,-0.2182,-0.2152,-0.216,-0.2156,-0.2149,-0.2124,-0.2117,-0.2124,-0.2118,-0.2095,-0.2093,-0.2092,-0.2108,-0.2066,-0.2067,-0.2068,-0.216,-0.2162,-0.2164,0,0,0,0,0,0,-0.2178,-0.2178,-0.218,-0.2183,-0.2184,-0.2162,-0.2156,-0.2151,-0.2146,-0.2125,-0.2116,-0.2122,-0.2093,-0.2091,-0.2117,-0.2107,-0.2068,-0.2069,-0.2158,-0.2161,-0.2163,-0.2185,0,0,0,0,0,0,-0.2178,-0.2177,-0.2172,-0.2182,-0.2183,-0.2219,-0.2159,-0.2154,-0.2154,-0.2145,-0.2121,-0.2113,-0.209,-0.2116,-0.2118,-0.2108,-0.207,-0.2156,-0.2159,-0.2163,-0.2182,-0.2188,-0.2193,0,0,0,0,0,-0.2178,-0.2198,-0.2171,-0.2171,-0.2176,-0.2221,-0.2225,-0.2198,-0.2157,-0.2177,-0.2159,-0.2113,-0.2137,-0.212,-0.2121,-0.2111,-0.2154,-0.2158,-0.2162,-0.2179,-0.2187,-0.2193,0,0,0,0,0,0,-0.2194,-0.2192,-0.2163,-0.2177,-0.2194,-0.2208,-0.2224,-0.2206,-0.221,-0.2191,-0.2156,-0.2151,-0.2165,-0.2157,-0.2138,-0.2153,-0.2132,-0.2137,-0.2144,-0.2151,-0.2156,-0.2135,-0.2071,0,0,0,0,0,-0.2196,-0.2198,-0.221,-0.2214,-0.223,-0.2225,-0.2237,-0.2223,-0.223,-0.2225,-0.2207,-0.2192,-0.2193,-0.2185,-0.2194,-0.2218,-0.216,-0.2211,-0.2216,-0.2221,-0.2208,-0.2123,-0.2118,-0.2178,-0.2178,-0.2178,0,0,-0.2189,-0.2198,-0.2189,-0.2217,-0.2224,-0.2259,-0.2224,-0.2251,-0.226,-0.2224,-0.2232,-0.2222,-0.221,-0.2225,-0.2228,-0.2208,-0.2178,-0.2226,-0.223,-0.2214,-0.2127,-0.212,-0.2114,-0.2181,-0.218,-0.218,0,0,-0.2218,-0.2203,-0.2226,-0.2253,-0.2281,-0.2286,-0.2294,-0.2312,-0.2299,-0.2329,-0.2288,-0.2281,-0.2295,-0.227,-0.2261,-0.2314,-0.2219,-0.2309,-0.2305,-0.2223,-0.2216,-0.2209,-0.2129,-0.2115,-0.23,-0.23,-0.23,0,-0.2213,-0.2233,-0.2244,-0.2292,-0.2302,-0.2297,-0.2329,-0.2342,-0.2358,-0.2342,-0.2333,-0.2314,-0.2311,-0.229,-0.2304,-0.232,-0.2252,-0.2273,-0.2224,-0.2216,-0.2208,-0.2128,-0.2112,-0.2301,-0.2301,-0.2301,-0.2301,0,-0.2265,-0.2281,-0.2308,-0.2343,-0.237,-0.24,-0.2417,-0.2427,-0.2405,-0.2393,-0.2376,-0.2372,-0.2336,-0.2346,-0.2342,-0.2288,-0.225,-0.2244,-0.2192,-0.2202,-0.2119,-0.2102,-0.2304,-0.2303,-0.2303,-0.2302,0,0,-0.2236,-0.2322,-0.2323,-0.2323,-0.239,-0.2397,-0.2441,-0.2447,-0.2405,-0.2431,-0.2377,-0.2401,-0.2354,-0.2343,-0.232,-0.2266,-0.217,-0.2227,-0.2222,-0.2123,-0.1966,-0.19,-0.1873,-0.2131,-0.2129,-0.2126,-0.193,0,-0.2257,-0.2322,-0.2373,-0.2395,-0.2413,-0.2437,-0.245,-0.2453,-0.2436,-0.2392,-0.2381,-0.2318,-0.2363,-0.2298,-0.2272,-0.219,-0.2123,-0.2223,-0.1994,-0.1987,-0.1905,-0.1851,-0.1756,-0.1568,-0.1912,-0.1909,-0.1907,0,-0.2275,-0.2308,-0.2338,-0.236,-0.2368,-0.237,-0.2332,-0.2347,-0.2323,-0.2302,-0.2271,-0.2242,-0.219,-0.2201,-0.2077,-0.2127,-0.2047,-0.1993,-0.1984,-0.1896,-0.1887,-0.1617,-0.1522,-0.1877,-0.1879,-0.1881,-0.1883,0,-0.2185,-0.2267,-0.2263,-0.2278,-0.232,-0.2299,-0.2295,-0.2284,-0.2249,-0.2191,-0.2128,-0.2109,-0.2013,-0.1968,-0.1909,-0.1952,-0.175,-0.1789,-0.1658,-0.1653,-0.1515,-0.1502,-0.1665,-0.1666,-0.1666,-0.1667,-0.1667,0,-0.216,-0.2147,-0.2195,-0.2178,-0.2122,-0.2184,-0.2099,-0.21,-0.2068,-0.1998,-0.2023,-0.1937,-0.1934,-0.1852,-0.1842,-0.1689,-0.1686,-0.1627,-0.1583,-0.1524,-0.1515,-0.1748,-0.1761,-0.1659,-0.1661,-0.1662,-0.1664,0,-0.2038,-0.2092,-0.2063,-0.208,-0.2068,-0.1997,-0.1966,-0.1913,-0.1887,-0.1793,-0.1754,-0.1735,-0.1602,-0.1608,-0.149,-0.1529,-0.1437,-0.1378,-0.1318,-0.1272,-0.1415,-0.1432,-0.1201,-0.1196,-0.1193,-0.1189,-0.1187,0,-0.1988,-0.1961,-0.1938,-0.1898,-0.1884,-0.1814,-0.1773,-0.1786,-0.1752,-0.1667,-0.1615,-0.1463,-0.137,-0.1207,-0.1161,-0.1076,-0.122,-0.1018,-0.1101,-0.1379,-0.136,-0.1383,-0.1403,-0.0926,-0.0921,-0.0918,-0.0915,0,-0.1869,-0.1839,-0.1809,-0.1727,-0.1664,-0.1614,-0.157,-0.1532,-0.1546,-0.1478,-0.1382,-0.1287,-0.1065,-0.0916,-0.0809,-0.0803,-0.1045,-0.0938,-0.1175,-0.1081,-0.1109,-0.1096,-0.1127,-0.0882,-0.0885,-0.0888,-0.089,-0.0891,-0.1754,-0.1688,-0.1644,-0.1557,-0.1495,-0.1432,-0.1371,-0.1364,-0.1301,-0.1193,-0.1176,-0.0974,-0.0882,-0.0596,-0.0567,-0.0581,-0.066,-0.0759,-0.0774,-0.0792,-0.0817,-0.084,-0.0566,-0.0567,-0.0569,-0.057,-0.0571,0,-0.1645,-0.1585,-0.1496,-0.1404,-0.1312,-0.1313,-0.1259,-0.1213,-0.114,-0.1004,-0.0888,-0.0672,-0.0482,-0.041,-0.0317,-0.0347,-0.0398,-0.0425,-0.0493,-0.0524,-0.0551,-0.0571,-0.025,-0.025,-0.0249,-0.0248,0,0,-0.1582,-0.1478,-0.1434,-0.1267,-0.1195,-0.1081,-0.1042,-0.0979,-0.0893,-0.0729,-0.0568,-0.0401,-0.036,-0.025,-0.0259,-0.0237,-0.0399,-0.0252,-0.0503,-0.061,-0.0637,-0.0728,-0.0789,0,0,0,0,0]},{"header":{"parameterUnit":"m.s-1","parameterCategory":2,"la1":30.2991,"la2":30.254,"lo1":-89.0895,"lo2":-89.0444,"dy":0.0017,"dx":0.0017,"nx":28,"ny":28,"refTime":"2026-02-01T03:00:00:Z","depth":"2","parameterNumber":3,"parameterNumberName":"V-component_of_CURRENTS"},"data":[0,0,0,0,0,0,0,0,0,0,0,0,0,0,0,0,0,0,0,0,0,0,0,0,0,0,0,0,0,0,0,0,0,0,0,0,0,0,0,0,0,0,0,0,0,0,0,0,0,0,0,0,0,0,0,0,0,0,0.0839,0.0838,0,0.0776,0.0775,0.0774,0.0742,0.0742,0.0742,0.0742,0.0746,0.0746,0.0746,0,0,0,0,0,0,0,0,0,0,0,0,0,0.0885,0.0885,0.0839,0.0838,0.0838,0.0776,0.0775,0.0774,0.0742,0.0742,0.0742,0.0742,0.0746,0.0746,0.0746,0,0,0,0,0,0,0,0,0,0,0,0,0,0.0846,0.0885,0.0839,0.0816,0.0814,0.0776,0.0775,0.0774,0.0742,0.0742,0.0742,0.0743,0.0746,0.0746,0.0746,0.0738,0,0,0.0745,0.0745,0,0,0,0,0,0,0,0,0.0848,0.0844,0.082,0.0818,0.0815,0.077,0.0793,0.0766,0.0742,0.0766,0.0742,0.0743,0.0762,0.076,0.0743,0.0739,0.0739,0.0745,0.0745,0.0745,0.0745,0,0,0,0,0,0,0,0.0851,0.0846,0.0811,0.0819,0.0816,0.0794,0.0789,0.0787,0.0762,0.0764,0.0762,0.076,0.076,0.0743,0.0743,0.0739,0.0745,0.0745,0.0745,0.0745,0.0808,0.081,0,0,0,0,0,0,0.0866,0.0849,0.0813,0.0809,0.0836,0.0793,0.0787,0.0781,0.076,0.0758,0.0759,0.0758,0.0743,0.0743,0.0743,0.0795,0.0745,0.0745,0.0745,0.0806,0.0808,0.081,0,0,0,0,0,0,0.0867,0.0863,0.0816,0.083,0.0823,0.0793,0.0786,0.078,0.0768,0.0757,0.0755,0.0755,0.0743,0.0743,0.0766,0.0793,0.0745,0.0745,0.0804,0.0807,0.0809,0.086,0,0,0,0,0,0,0.0869,0.0864,0.0864,0.0831,0.0823,0.0789,0.0786,0.0779,0.0767,0.0765,0.0753,0.0752,0.0744,0.0766,0.0765,0.0792,0.0745,0.0802,0.0805,0.0808,0.0856,0.0864,0.087,0,0,0,0,0,0.0871,0.086,0.0864,0.086,0.0824,0.0789,0.0782,0.076,0.0767,0.0753,0.077,0.0753,0.0787,0.0767,0.0766,0.0793,0.08,0.0804,0.0808,0.0852,0.0862,0.087,0,0,0,0,0,0,0.0869,0.0856,0.0859,0.0843,0.0821,0.0785,0.0772,0.0766,0.0763,0.0772,0.0768,0.077,0.0803,0.0793,0.0771,0.0824,0.0794,0.0797,0.0828,0.0837,0.0844,0.0836,0.0745,0,0,0,0,0,0.0874,0.0867,0.0849,0.0834,0.0829,0.0806,0.0793,0.078,0.0774,0.0771,0.0773,0.0789,0.0816,0.0822,0.0833,0.0852,0.0849,0.0873,0.0881,0.0887,0.0882,0.0919,0.0929,0.0823,0.0823,0.0823,0,0,0.0871,0.0861,0.0858,0.0835,0.0819,0.0798,0.0797,0.0777,0.0771,0.0776,0.0781,0.0812,0.0829,0.086,0.0874,0.0855,0.0916,0.0892,0.0897,0.0888,0.0924,0.0934,0.0943,0.0826,0.0825,0.0825,0,0,0.0841,0.0853,0.0833,0.0822,0.0804,0.0794,0.0794,0.0774,0.0779,0.0792,0.0815,0.0868,0.0875,0.0908,0.0924,0.0979,0.0957,0.0983,0.1007,0.1044,0.1052,0.106,0.1066,0.1073,0.0982,0.0982,0.0982,0,0.0828,0.0811,0.0819,0.0796,0.0789,0.0796,0.0773,0.0776,0.077,0.0802,0.0801,0.0885,0.0901,0.0968,0.0992,0.0995,0.0997,0.097,0.1052,0.1059,0.1066,0.107,0.1078,0.0985,0.0985,0.0985,0.0984,0,0.0787,0.0776,0.0764,0.0747,0.0742,0.0724,0.0738,0.075,0.0776,0.0806,0.0883,0.0923,0.0971,0.1002,0.1011,0.1081,0.106,0.106,0.1025,0.108,0.1081,0.1088,0.0989,0.0988,0.0988,0.0987,0,0,0.0744,0.0732,0.0731,0.0725,0.0721,0.0711,0.0725,0.0753,0.0786,0.0834,0.0887,0.0974,0.102,0.1042,0.1076,0.1121,0.118,0.1109,0.111,0.1106,0.1238,0.1152,0.1151,0.1191,0.1193,0.1194,0.1218,0,0.0703,0.0654,0.067,0.0646,0.0629,0.0664,0.0677,0.0721,0.0774,0.0832,0.0932,0.0989,0.1026,0.1054,0.1114,0.116,0.1201,0.1172,0.1192,0.1192,0.1103,0.1158,0.1109,0.1119,0.1224,0.1225,0.1226,0,0.0661,0.0638,0.0596,0.0609,0.061,0.0606,0.0656,0.0672,0.0776,0.0821,0.0918,0.0982,0.1075,0.1085,0.1195,0.117,0.1206,0.1243,0.1245,0.1149,0.112,0.1084,0.1128,0.1238,0.1237,0.1236,0.1235,0,0.0629,0.06,0.0568,0.0567,0.0574,0.0585,0.0605,0.0684,0.0713,0.0815,0.084,0.0976,0.1004,0.1102,0.1169,0.1184,0.1266,0.1292,0.1253,0.1246,0.1199,0.1184,0.1367,0.1367,0.1367,0.1367,0.1367,0,0.0585,0.0572,0.0551,0.0539,0.053,0.0559,0.0581,0.0622,0.0689,0.073,0.0829,0.085,0.1006,0.1069,0.116,0.1207,0.1253,0.126,0.1254,0.1213,0.12,0.1296,0.1287,0.1368,0.1368,0.1368,0.1367,0,0.0568,0.0542,0.0518,0.0513,0.051,0.0515,0.0538,0.056,0.0611,0.0652,0.0672,0.0756,0.0807,0.094,0.1069,0.1148,0.1232,0.1233,0.1154,0.1138,0.1197,0.1191,0.1219,0.1217,0.1214,0.1212,0.1211,0,0.0559,0.0534,0.0499,0.0478,0.0476,0.0477,0.0474,0.0518,0.0538,0.0581,0.0591,0.0633,0.0637,0.077,0.0935,0.1064,0.1114,0.1089,0.1121,0.1193,0.1185,0.1183,0.118,0.1086,0.1084,0.1082,0.108,0,0.0563,0.0544,0.0521,0.0463,0.0441,0.0416,0.0419,0.0407,0.0455,0.0453,0.0445,0.0439,0.0537,0.0654,0.0802,0.0871,0.1074,0.1048,0.1164,0.1111,0.1065,0.1057,0.106,0.1062,0.1064,0.1065,0.1066,0.1067,0.058,0.0561,0.0514,0.0465,0.0423,0.0368,0.0333,0.0327,0.0305,0.0296,0.0312,0.0343,0.0427,0.0632,0.0693,0.0842,0.0911,0.0978,0.0987,0.0998,0.0958,0.0908,0.0868,0.0869,0.0869,0.087,0.087,0,0.0594,0.0565,0.0523,0.0449,0.0386,0.0369,0.0305,0.0248,0.0189,0.0214,0.0186,0.0279,0.0372,0.0517,0.0751,0.0814,0.0818,0.0778,0.0826,0.0843,0.0859,0.0815,0.0686,0.0685,0.0684,0.0684,0,0,0.0602,0.0569,0.0539,0.0437,0.0376,0.0274,0.0218,0.0131,0.0122,0.0081,0.0186,0.0206,0.0422,0.0514,0.0559,0.0678,0.0711,0.0624,0.077,0.0832,0.0845,0.0977,0.0928,0,0,0,0,0]}],[{"header":{"parameterUnit":"m.s-1","parameterCategory":2,"la1":30.2991,"la2":30.254,"lo1":-89.0895,"lo2":-89.0444,"dy":0.0017,"dx":0.0017,"nx":28,"ny":28,"refTime":"2026-02-01T03:00:00:Z","depth":"4","parameterNumber":2,"parameterNumberName":"U-component_of_CURRENTS"},"data":[0,0,0,0,0,0,0,0,0,0,0,0,0,0,0,0,0,0,0,0,0,0,0,0,0,0,0,0,0,0,0,0,0,0,0,0,0,0,0,0,0,0,0,0,0,0,0,0,0,0,0,0,0,0,0,0,0,0,-0.0839,-0.084,0,-0.0896,-0.0897,-0.0898,-0.0935,-0.0935,-0.0935,-0.0935,-0.1033,-0.1035,-0.1038,0,0,0,0,0,0,0,0,0,0,0,0,0,-0.0829,-0.0829,-0.0839,-0.084,-0.084,-0.0896,-0.0897,-0.0898,-0.0935,-0.0935,-0.0935,-0.0935,-0.1032,-0.1035,-0.1038,0,0,0,0,0,0,0,0,0,0,0,0,0,-0.0857,-0.0829,-0.0839,-0.0863,-0.0866,-0.0896,-0.0897,-0.0898,-0.0935,-0.0935,-0.0935,-0.0935,-0.1031,-0.1035,-0.1039,-0.1064,0,0,-0.1051,-0.1052,0,0,0,0,0,0,0,0,-0.0855,-0.0858,-0.0859,-0.0861,-0.0864,-0.0906,-0.0929,-0.0955,-0.0935,-0.0912,-0.0935,-0.0935,-0.0992,-0.0999,-0.1014,-0.1069,-0.1073,-0.1051,-0.1053,-0.1055,-0.1056,0,0,0,0,0,0,0,-0.0853,-0.0856,-0.0865,-0.086,-0.0863,-0.0893,-0.0897,-0.0934,-0.0955,-0.0914,-0.0916,-0.0917,-0.0994,-0.101,-0.1016,-0.1074,-0.1051,-0.1054,-0.1057,-0.1058,-0.1191,-0.1192,0,0,0,0,0,0,-0.0837,-0.0853,-0.0863,-0.0866,-0.0856,-0.0893,-0.0897,-0.0895,-0.0953,-0.0961,-0.0917,-0.0919,-0.1003,-0.1012,-0.102,-0.1098,-0.1055,-0.1059,-0.1061,-0.119,-0.1191,-0.1193,0,0,0,0,0,0,-0.0836,-0.0837,-0.0861,-0.0859,-0.0864,-0.0892,-0.089,-0.0896,-0.0917,-0.0955,-0.0964,-0.0932,-0.1003,-0.1014,-0.1075,-0.11,-0.1061,-0.1064,-0.1189,-0.119,-0.1192,-0.1226,0,0,0,0,0,0,-0.0836,-0.0836,-0.0841,-0.0858,-0.0863,-0.089,-0.089,-0.0897,-0.0916,-0.0919,-0.0971,-0.0979,-0.1004,-0.1069,-0.1079,-0.1105,-0.1067,-0.1187,-0.1189,-0.1191,-0.1223,-0.1228,-0.1233,0,0,0,0,0,-0.0835,-0.0842,-0.0841,-0.0843,-0.0865,-0.089,-0.0897,-0.0919,-0.0917,-0.0936,-0.0975,-0.0978,-0.1089,-0.1074,-0.1085,-0.1113,-0.1186,-0.1189,-0.1191,-0.1221,-0.1227,-0.1233,0,0,0,0,0,0,-0.0848,-0.0847,-0.0846,-0.0854,-0.0873,-0.0895,-0.0916,-0.0921,-0.0965,-0.0973,-0.1002,-0.1015,-0.1077,-0.1088,-0.107,-0.1155,-0.1134,-0.1139,-0.1153,-0.1159,-0.1164,-0.1149,-0.1071,0,0,0,0,0,-0.0848,-0.0846,-0.0859,-0.0865,-0.0876,-0.0894,-0.0909,-0.0923,-0.0955,-0.0974,-0.1013,-0.1053,-0.1095,-0.1121,-0.1163,-0.1213,-0.1201,-0.1234,-0.1239,-0.1243,-0.1238,-0.1228,-0.1231,-0.1201,-0.1201,-0.1201,0,0,-0.0846,-0.0851,-0.0847,-0.0867,-0.0884,-0.0908,-0.0905,-0.0932,-0.0959,-0.0979,-0.1043,-0.1077,-0.1113,-0.1174,-0.1201,-0.1188,-0.1252,-0.1246,-0.1249,-0.1242,-0.1231,-0.1233,-0.1236,-0.1203,-0.1202,-0.1202,0,0,-0.0849,-0.0856,-0.0859,-0.0881,-0.0907,-0.0925,-0.093,-0.0965,-0.0992,-0.1048,-0.1072,-0.1116,-0.1186,-0.1216,-0.1237,-0.1289,-0.1279,-0.1306,-0.132,-0.1311,-0.1313,-0.1314,-0.1325,-0.1327,-0.1306,-0.1306,-0.1306,0,-0.0854,-0.0857,-0.0868,-0.0889,-0.0909,-0.093,-0.0952,-0.0986,-0.1039,-0.1064,-0.1074,-0.1169,-0.1201,-0.1259,-0.1283,-0.13,-0.1298,-0.1296,-0.1315,-0.1316,-0.1317,-0.1328,-0.1329,-0.1308,-0.1307,-0.1307,-0.1307,0,-0.0858,-0.0874,-0.0884,-0.0911,-0.0939,-0.0965,-0.1005,-0.1044,-0.1074,-0.1103,-0.1172,-0.122,-0.1271,-0.129,-0.1308,-0.1341,-0.1341,-0.1323,-0.1296,-0.1322,-0.1332,-0.1333,-0.131,-0.131,-0.1309,-0.1309,0,0,-0.084,-0.0877,-0.0885,-0.0899,-0.0955,-0.0974,-0.103,-0.108,-0.1107,-0.117,-0.1207,-0.1285,-0.1306,-0.133,-0.1358,-0.1353,-0.1371,-0.1345,-0.1344,-0.1349,-0.1367,-0.1242,-0.1231,-0.1354,-0.1354,-0.1353,-0.138,0,-0.0845,-0.0873,-0.0901,-0.094,-0.0958,-0.1006,-0.1051,-0.1102,-0.115,-0.1198,-0.1244,-0.1297,-0.1324,-0.1351,-0.1358,-0.1369,-0.1372,-0.1366,-0.1347,-0.1347,-0.1225,-0.1227,-0.1353,-0.138,-0.1381,-0.1381,-0.1381,0,-0.0843,-0.0863,-0.0896,-0.0943,-0.0958,-0.0993,-0.106,-0.1104,-0.1176,-0.1211,-0.127,-0.131,-0.1361,-0.1353,-0.1387,-0.1384,-0.1383,-0.1375,-0.1376,-0.1241,-0.1222,-0.1345,-0.1382,-0.1382,-0.1382,-0.1382,-0.1382,0,-0.0812,-0.0861,-0.0884,-0.0904,-0.0965,-0.0997,-0.1036,-0.1108,-0.1137,-0.1219,-0.1232,-0.1316,-0.1339,-0.1358,-0.1372,-0.1384,-0.1368,-0.1381,-0.1271,-0.1264,-0.1356,-0.1354,-0.1377,-0.1376,-0.1376,-0.1376,-0.1376,0,-0.0801,-0.0822,-0.0871,-0.0887,-0.0914,-0.0974,-0.1015,-0.1064,-0.1125,-0.1131,-0.1235,-0.123,-0.1332,-0.1343,-0.1365,-0.1312,-0.1369,-0.1265,-0.1249,-0.1375,-0.1374,-0.1358,-0.1356,-0.1377,-0.1377,-0.1377,-0.1377,0,-0.0762,-0.0798,-0.0823,-0.0883,-0.0898,-0.0921,-0.0977,-0.0995,-0.1065,-0.1071,-0.1092,-0.1172,-0.1179,-0.1254,-0.1275,-0.1271,-0.125,-0.1212,-0.1351,-0.1344,-0.1169,-0.1169,-0.1117,-0.1112,-0.1108,-0.1105,-0.1102,0,-0.0738,-0.0748,-0.0799,-0.0801,-0.083,-0.0866,-0.0876,-0.0954,-0.0956,-0.0996,-0.0971,-0.1015,-0.1054,-0.1003,-0.1093,-0.1135,-0.1119,-0.1137,-0.1151,-0.1147,-0.1137,-0.1143,-0.1147,-0.1096,-0.1095,-0.1094,-0.1093,0,-0.069,-0.0719,-0.0733,-0.0733,-0.0746,-0.0748,-0.0764,-0.0756,-0.0815,-0.088,-0.0822,-0.0845,-0.0841,-0.09,-0.0935,-0.0959,-0.1148,-0.1098,-0.1107,-0.1121,-0.1122,-0.1117,-0.1126,-0.108,-0.1082,-0.1083,-0.1084,0,-0.065,-0.0638,-0.0653,-0.0649,-0.0643,-0.061,-0.0648,-0.0625,-0.0639,-0.0692,-0.0654,-0.0705,-0.0776,-0.0801,-0.0819,-0.0849,-0.0861,-0.0875,-0.0897,-0.0912,-0.0838,-0.0809,-0.0643,0,0,0,0,0,-0.06,-0.0575,-0.056,-0.0538,-0.0524,-0.0526,-0.0547,-0.0588,-0.0638,-0.056,-0.0609,-0.0593,-0.0623,-0.0663,-0.066,-0.0765,-0.0887,-0.0763,-0.0919,-0.1007,-0.1022,-0.0956,0,0,0,0,0,0,-0.0562,-0.0549,-0.0533,-0.0436,-0.0398,-0.0374,-0.0388,-0.0435,-0.0403,-0.0464,-0.048,-0.0542,-0.0587,-0.0596,-0.0634,-0.0654,-0.0741,-0.0812,-0.081,-0.0998,-0.1012,-0.1024,-0.0961,0,0,0,0,0]},{"header":{"parameterUnit":"m.s-1","parameterCategory":2,"la1":30.2991,"la2":30.254,"lo1":-89.0895,"lo2":-89.0444,"dy":0.0017,"dx":0.0017,"nx":28,"ny":28,"refTime":"2026-02-01T03:00:00:Z","depth":"4","parameterNumber":3,"parameterNumberName":"V-component_of_CURRENTS"},"data":[0,0,0,0,0,0,0,0,0,0,0,0,0,0,0,0,0,0,0,0,0,0,0,0,0,0,0,0,0,0,0,0,0,0,0,0,0,0,0,0,0,0,0,0,0,0,0,0,0,0,0,0,0,0,0,0,0,0,-0.0157,-0.0158,0,-0.0166,-0.0166,-0.0166,-0.0164,-0.0164,-0.0164,-0.0164,-0.0153,-0.0153,-0.0152,0,0,0,0,0,0,0,0,0,0,0,0,0,-0.0127,-0.0128,-0.0157,-0.0158,-0.0158,-0.0166,-0.0166,-0.0166,-0.0164,-0.0164,-0.0164,-0.0164,-0.0153,-0.0153,-0.0152,0,0,0,0,0,0,0,0,0,0,0,0,0,-0.0137,-0.0128,-0.0157,-0.0159,-0.016,-0.0166,-0.0166,-0.0166,-0.0164,-0.0164,-0.0164,-0.0164,-0.0153,-0.0153,-0.0152,-0.0149,0,0,-0.0151,-0.0151,0,0,0,0,0,0,0,0,-0.0136,-0.0138,-0.0159,-0.0159,-0.016,-0.0165,-0.0151,-0.016,-0.0164,-0.0161,-0.0164,-0.0164,-0.0156,-0.0156,-0.0155,-0.0149,-0.0149,-0.0151,-0.0151,-0.015,-0.015,0,0,0,0,0,0,0,-0.0136,-0.0137,-0.0159,-0.0159,-0.016,-0.0156,-0.0157,-0.0153,-0.0157,-0.0161,-0.0161,-0.0165,-0.0156,-0.0156,-0.0155,-0.0148,-0.0151,-0.015,-0.015,-0.015,-0.0183,-0.0184,0,0,0,0,0,0,-0.0139,-0.0137,-0.0159,-0.0159,-0.015,-0.0156,-0.0158,-0.0162,-0.0157,-0.0157,-0.0165,-0.0165,-0.0156,-0.0155,-0.0154,-0.0185,-0.015,-0.015,-0.015,-0.0182,-0.0184,-0.0185,0,0,0,0,0,0,-0.0138,-0.0141,-0.0158,-0.015,-0.0152,-0.0157,-0.0162,-0.0162,-0.0169,-0.0161,-0.016,-0.0173,-0.0156,-0.0155,-0.0159,-0.0183,-0.015,-0.0149,-0.0181,-0.0183,-0.0184,-0.0223,0,0,0,0,0,0,-0.0137,-0.0141,-0.0146,-0.015,-0.0152,-0.0175,-0.0162,-0.0163,-0.0172,-0.0172,-0.0167,-0.0165,-0.0156,-0.016,-0.0159,-0.0182,-0.0149,-0.0179,-0.0182,-0.0184,-0.022,-0.0226,-0.0231,0,0,0,0,0,-0.0136,-0.0146,-0.0147,-0.015,-0.016,-0.0176,-0.0177,-0.0179,-0.0172,-0.0183,-0.0175,-0.0166,-0.0173,-0.016,-0.0158,-0.0182,-0.0178,-0.0181,-0.0183,-0.0218,-0.0225,-0.0231,0,0,0,0,0,0,-0.0137,-0.0147,-0.0148,-0.016,-0.0173,-0.0176,-0.0183,-0.0184,-0.0187,-0.0184,-0.0172,-0.017,-0.0187,-0.0178,-0.0164,-0.02,-0.0178,-0.018,-0.0205,-0.0211,-0.0216,-0.022,-0.0149,0,0,0,0,0,-0.014,-0.015,-0.016,-0.0172,-0.0176,-0.018,-0.0186,-0.0191,-0.0192,-0.0193,-0.0187,-0.0186,-0.0196,-0.0197,-0.02,-0.0212,-0.0186,-0.023,-0.0235,-0.0239,-0.0243,-0.024,-0.0245,-0.0193,-0.0193,-0.0193,0,0,-0.0145,-0.0151,-0.0158,-0.0173,-0.0177,-0.0199,-0.0184,-0.0198,-0.0219,-0.0191,-0.0208,-0.0202,-0.0203,-0.0221,-0.0228,-0.0216,-0.0233,-0.0242,-0.0246,-0.0247,-0.0243,-0.0248,-0.0252,-0.0195,-0.0195,-0.0194,0,0,-0.0166,-0.0163,-0.0183,-0.0195,-0.021,-0.0213,-0.0221,-0.0228,-0.0233,-0.0248,-0.0239,-0.0249,-0.0251,-0.0263,-0.0268,-0.0305,-0.0262,-0.0304,-0.0331,-0.0328,-0.0332,-0.0335,-0.0274,-0.0272,-0.0305,-0.0305,-0.0306,0,-0.0169,-0.0197,-0.0192,-0.0217,-0.0233,-0.0224,-0.0255,-0.026,-0.0269,-0.0273,-0.0261,-0.0277,-0.0278,-0.031,-0.0322,-0.0319,-0.0281,-0.0305,-0.0334,-0.0337,-0.0339,-0.0276,-0.0273,-0.0308,-0.0307,-0.0307,-0.0307,0,-0.0216,-0.0233,-0.0244,-0.0272,-0.029,-0.031,-0.0321,-0.0332,-0.0329,-0.0329,-0.0349,-0.0346,-0.0354,-0.0363,-0.0351,-0.0377,-0.033,-0.034,-0.0315,-0.0346,-0.0278,-0.0274,-0.0311,-0.031,-0.0309,-0.0309,0,0,-0.023,-0.0268,-0.0273,-0.0296,-0.0319,-0.034,-0.037,-0.0393,-0.0412,-0.0408,-0.0428,-0.0445,-0.0423,-0.0429,-0.0419,-0.0418,-0.0397,-0.0382,-0.0381,-0.0314,-0.0335,-0.0263,-0.025,-0.0403,-0.0403,-0.0403,-0.0267,0,-0.0265,-0.0318,-0.0333,-0.0385,-0.041,-0.0417,-0.0449,-0.0466,-0.0468,-0.0478,-0.047,-0.0482,-0.0454,-0.0458,-0.0452,-0.0423,-0.0393,-0.0429,-0.0321,-0.0317,-0.0244,-0.0247,-0.0405,-0.0263,-0.0262,-0.0262,-0.0261,0,-0.031,-0.0336,-0.0393,-0.0438,-0.0451,-0.0486,-0.0528,-0.0554,-0.056,-0.0558,-0.0553,-0.0532,-0.0528,-0.0505,-0.0445,-0.0462,-0.0395,-0.0362,-0.0356,-0.0276,-0.0239,-0.0234,-0.0253,-0.0254,-0.0254,-0.0255,-0.0255,0,-0.0323,-0.0379,-0.0424,-0.0441,-0.0491,-0.0525,-0.0552,-0.0576,-0.0599,-0.0602,-0.0609,-0.0584,-0.058,-0.0514,-0.042,-0.0432,-0.033,-0.0346,-0.0205,-0.0197,-0.0285,-0.0283,-0.0292,-0.0292,-0.0293,-0.0293,-0.0293,0,-0.0349,-0.0385,-0.0435,-0.0459,-0.052,-0.0548,-0.0607,-0.0626,-0.065,-0.0669,-0.0644,-0.0648,-0.0586,-0.0513,-0.042,-0.0279,-0.0321,-0.0199,-0.0168,-0.0299,-0.0301,-0.0278,-0.0279,-0.0288,-0.0289,-0.029,-0.0291,0,-0.0355,-0.0385,-0.044,-0.0502,-0.0527,-0.0571,-0.0644,-0.0678,-0.0696,-0.0721,-0.0722,-0.0695,-0.0594,-0.0483,-0.0369,-0.0282,-0.0161,-0.0094,-0.0191,-0.0169,-0.0021,-0.0026,0.0063,0.0066,0.0069,0.0072,0.0074,0,-0.0363,-0.0388,-0.0468,-0.0508,-0.0541,-0.0608,-0.0653,-0.0694,-0.0721,-0.0742,-0.0745,-0.0673,-0.0623,-0.0386,-0.0287,-0.0068,-0.0046,0.0031,-0.0043,-0.0012,0.001,0.0001,-0.0007,0.0079,0.0079,0.008,0.0081,0,-0.037,-0.0399,-0.0445,-0.0521,-0.0581,-0.0649,-0.0708,-0.0727,-0.076,-0.0782,-0.0736,-0.0632,-0.0506,-0.0356,-0.0168,-0.003,-0.0025,0.0062,0.0055,-0.0014,0.0008,0.0025,0.0014,0.0091,0.009,0.0089,0.0088,0,-0.0374,-0.0408,-0.0464,-0.053,-0.0606,-0.0661,-0.0701,-0.0719,-0.0741,-0.0743,-0.0726,-0.0608,-0.0558,-0.0332,-0.0172,-0.001,0.0007,0.0035,0.003,0.002,-0.0043,-0.0025,0.0082,0,0,0,0,0,-0.0366,-0.0398,-0.0467,-0.0543,-0.0618,-0.065,-0.0722,-0.0751,-0.0775,-0.0727,-0.0721,-0.059,-0.0371,-0.0303,-0.0124,-0.0127,0.003,0.0086,0.0059,0.0148,0.0136,0.0073,0,0,0,0,0,0,-0.0363,-0.0417,-0.0454,-0.053,-0.0574,-0.0651,-0.0687,-0.0711,-0.0681,-0.0687,-0.0569,-0.0532,-0.0318,-0.045,-0.0111,-0.007,-0.0062,0.0179,0.0183,0.0154,0.0143,0.0134,0.0066,0,0,0,0,0]}]]